Weather History for K6R6 - May, 2013

Change the Weather History Date:

Saturday, May 18, 2013

  Actual Average (KFST) Record (KFST)
Temperature  
Mean Temperature 88 °F -  
Max Temperature 102 °F 88 °F 106 °F (2003)
Min Temperature 75 °F 61 °F 55 °F (2008)
Cooling Degree Days 24    
Growing Degree Days 38 (Base 50)    
Moisture  
Dew Point 58 °F    
Average Humidity 43    
Maximum Humidity 74    
Minimum Humidity 8    
Precipitation  
Precipitation 0.00 in - - ()
Sea Level Pressure  
Sea Level Pressure 29.70 in    
Wind  
Wind Speed 9 mph (SE)    
Max Wind Speed 18 mph    
Max Gust Speed 28 mph    
Averages and records for this station are not official NWS values.
T = Trace of Precipitation, MM = Missing Value Source: NWS Daily Summary

Daily Weather History Graph

Daily Weather History Graph

Search for Another Location

Airport or City:

Trip Planner

Search our weather history database for the weather conditions in past years. The results will help you decide how hot, cold, wet, or windy it might be!

Date:

Astronomy

May. 18, 2013 Rise Set
Actual Time 6:53 AM CDT 8:37 PM CDT
Civil Twilight 6:27 AM CDT 9:03 PM CDT
Nautical Twilight 5:55 AM CDT 9:35 PM CDT
Astronomical Twilight 5:21 AM CDT 10:09 PM CDT
Moon 2:11 PM CDT (5/18) 2:16 AM CDT (5/18)
Length of Visible Light 14h 36m
Length of Day
13h 44m
First Quarter, 55% of the Moon is Illuminated
May 18
First Quarter
May 24
Full
May 31
Last Quarter
Jun 8
New
Jun 16
First Quarter

Hourly Weather History & Observations

Time (CDT) Temp. Heat Index Dew Point Humidity Pressure Visibility Wind Dir Wind Speed Gust Speed Precip Events Conditions
12:53 AM 84.0 °F 83.8 °F 59.0 °F 43% 29.71 in - SE 8.1 mph - N/A   Unknown
1:53 AM 82.9 °F 82.8 °F 59.0 °F 44% 29.70 in - SE 10.4 mph - N/A   Unknown
2:53 AM 81.0 °F 81.6 °F 60.1 °F 49% 29.70 in - ESE 6.9 mph - N/A   Unknown
3:53 AM 80.1 °F 81.2 °F 62.1 °F 54% 29.70 in - East 6.9 mph - N/A   Unknown
4:53 AM 80.1 °F 81.9 °F 64.9 °F 60% 29.70 in - ESE 9.2 mph 18.4 mph N/A   Unknown
5:53 AM 78.1 °F - 66.0 °F 66% 29.71 in - SE 5.8 mph - N/A   Unknown
6:53 AM 75.9 °F - 66.9 °F 74% 29.74 in - ESE 5.8 mph - N/A   Unknown
7:53 AM 75.9 °F - 66.0 °F 71% 29.76 in - East 8.1 mph - N/A   Unknown
8:53 AM 77.0 °F - 66.0 °F 69% 29.77 in - ESE 9.2 mph - N/A   Unknown
9:53 AM 79.0 °F - 66.0 °F 64% 29.79 in - SE 6.9 mph - N/A   Unknown
10:53 AM 84.0 °F 86.3 °F 66.0 °F 55% 29.78 in - SE 6.9 mph - N/A   Unknown
11:53 AM 87.1 °F 87.8 °F 63.0 °F 44% 29.77 in - Variable 4.6 mph - N/A   Unknown
12:53 PM 91.0 °F 89.7 °F 57.0 °F 32% 29.75 in - Variable 6.9 mph - N/A   Unknown
1:53 PM 97.0 °F - 50.0 °F 20% 29.71 in - SSW 12.7 mph 17.3 mph N/A   Unknown
2:53 PM 98.1 °F - 34.0 °F 11% 29.68 in - Calm Calm - N/A   Unknown
3:53 PM 102.0 °F - 35.1 °F 10% 29.65 in - South 12.7 mph 25.3 mph N/A   Unknown
4:42 PM 102.2 °F - 35.6 °F 10% 29.77 in - South 12.7 mph 24.2 mph N/A   Unknown
4:53 PM 102.0 °F - 30.9 °F 8% 29.63 in - SSE 8.1 mph 20.7 mph N/A   Unknown
5:53 PM 98.1 °F 96.8 °F 57.0 °F 25% 29.63 in - ESE 18.4 mph 25.3 mph N/A   Unknown
6:53 PM 96.1 °F 94.8 °F 57.0 °F 27% 29.62 in - SE 17.3 mph 26.5 mph N/A   Unknown
7:53 PM 93.0 °F 93.0 °F 61.0 °F 34% 29.63 in - SE 15.0 mph 20.7 mph N/A   Unknown
8:53 PM 88.0 °F 88.7 °F 63.0 °F 43% 29.65 in - SE 18.4 mph 24.2 mph N/A   Unknown
9:53 PM 86.0 °F 88.2 °F 66.0 °F 51% 29.66 in - SE 13.8 mph - N/A   Unknown
10:53 PM 84.9 °F 86.6 °F 64.9 °F 51% 29.66 in - ESE 17.3 mph 27.6 mph N/A   Unknown
11:53 PM 84.0 °F 85.8 °F 64.9 °F 53% 29.66 in - ESE 16.1 mph 24.2 mph N/A   Unknown